Date String (YYYY-MM-DD hh:mm:ss) UTC,Instrument flags,absolute air pressure of the measurement (hPa),sample flow rate (lpm),inlet stack bypass flow (lpm),air temperature of the measurement (°C),ambient temperature measured by the external sensor (°C),aerosol sample conditioner tube jacket temperature (°C),OPC LED temperature (°C),internal box temperature (°C),relative humidity of the measurement (%),span deviation,mass concentration of particles derived from Lorenz-Mie calculation of OPC scattering (μg/m³),mass concentration of particles derived from Lorenz-Mie calculation of OPC scattering (μg/m³),mass concentration of particles derived from Lorenz-Mie calculation of OPC scattering (μg/m³)
DateTimeUTC,F1_M11,P_M11,Q1_M11,Q2_M11,T1_M11,T2_M11,T3_M11,T4_M11,T5_M11,U1_M11,ZSPAN_M11,X0_M11,X2_M11,X1_M11
2024-04-13 16:00:00,SystemResetWarning,0827.4,5.00,000.00,025.7,024.7,000.0,034.1,027.5,015.3,0000.0,0014.69,0004.29,0002.46
2024-04-13 16:01:00,SystemResetWarning,0827.6,4.99,000.00,025.7,024.9,000.0,034.1,027.6,016.6,0000.0,0014.76,0004.23,0002.47
2024-04-13 16:02:00,SystemResetWarning,0827.5,4.99,000.00,025.8,025.0,000.0,034.1,027.7,016.2,0000.0,0014.92,0004.23,0002.49
2024-04-13 16:03:00,SystemResetWarning,0827.5,5.01,000.00,025.8,025.1,000.0,034.1,027.7,016.5,0000.0,0015.12,0004.19,0002.49
2024-04-13 16:04:00,SystemResetWarning,0827.5,5.01,000.00,025.9,025.2,000.0,034.1,027.8,016.6,0000.0,0015.42,0004.19,0002.48
2024-04-13 16:05:00,SystemResetWarning,0827.5,4.99,000.00,025.9,025.2,000.0,034.1,027.8,015.8,0000.0,0015.12,0004.22,0002.49
2024-04-13 16:06:00,SystemResetWarning,0827.6,5.01,000.00,026.0,025.3,000.0,034.2,027.9,014.5,0000.0,0014.64,0004.24,0002.49
2024-04-13 16:07:00,SystemResetWarning,0827.9,4.99,000.00,026.0,025.4,000.0,034.2,027.9,013.3,0000.0,0015.24,0004.31,0002.50
2024-04-13 16:08:00,SystemResetWarning,0827.5,5.00,000.00,026.1,025.5,000.0,034.2,028.0,012.7,0000.0,0015.20,0004.28,0002.49
2024-04-13 16:09:00,SystemResetWarning,0827.5,5.00,000.00,026.1,025.5,000.0,034.3,028.0,014.3,0000.0,0015.61,0004.28,0002.50
2024-04-13 16:10:00,SystemResetWarning,0827.5,5.00,000.00,026.2,025.6,000.0,034.3,028.1,016.5,0000.0,0016.04,0004.28,0002.49
2024-04-13 16:11:00,SystemResetWarning,0827.5,5.00,000.00,026.2,025.6,000.0,034.3,028.1,017.2,0000.0,0015.98,0004.27,0002.51
2024-04-13 16:12:00,SystemResetWarning,0827.6,5.01,000.00,026.2,025.7,000.0,034.4,028.1,016.3,0000.0,0016.61,0004.28,0002.53
2024-04-13 16:13:00,SystemResetWarning,0827.5,5.01,000.00,026.3,025.7,000.0,034.4,028.2,015.3,0000.0,0017.25,0004.25,0002.51
2024-04-13 16:14:00,SystemResetWarning,0827.5,4.99,000.00,026.3,025.8,000.0,034.4,028.2,015.1,0000.0,0017.25,0004.24,0002.48
2024-04-13 16:15:00,SystemResetWarning,0827.5,4.98,000.00,026.3,025.4,000.0,034.5,028.0,015.2,0000.0,0017.76,0004.26,0002.48
2024-04-13 16:16:00,SystemResetWarning,0827.5,5.01,000.00,026.0,023.4,000.0,034.5,026.8,013.6,0000.0,0017.88,0004.29,0002.50
2024-04-13 16:17:00,SystemResetWarning,0827.4,5.00,000.00,025.5,022.0,000.0,034.5,026.0,013.7,0000.0,0017.29,0004.25,0002.50
2024-04-13 16:18:00,SystemResetWarning,0827.4,5.02,000.00,025.3,022.3,000.0,034.4,026.0,014.9,0000.0,0015.98,0004.22,0002.49
2024-04-13 16:19:00,SystemResetWarning,0827.4,4.99,000.00,025.2,022.6,000.0,034.2,026.2,016.0,0000.0,0015.31,0004.21,0002.50
2024-04-13 16:20:00,SystemResetWarning,0827.4,4.99,000.00,025.2,023.0,000.0,034.1,026.6,014.9,0000.0,0014.39,0004.17,0002.50
2024-04-13 16:21:00,SystemResetWarning,0827.4,5.01,000.00,025.3,023.4,000.0,034.0,026.8,014.1,0000.0,0013.72,0004.14,0002.51
2024-04-13 16:22:00,SystemResetWarning,0827.5,5.01,000.00,025.3,023.7,000.0,034.0,027.0,013.2,0000.0,0013.95,0004.15,0002.50
2024-04-13 16:23:00,SystemResetWarning,0827.7,5.00,000.00,025.4,024.0,000.0,034.0,027.1,013.9,0000.0,0012.72,0004.10,0002.47
2024-04-13 16:24:00,SystemResetWarning,0827.5,5.00,000.00,025.4,024.2,000.0,033.9,027.2,014.5,0000.0,0012.21,0004.09,0002.46
2024-04-13 16:25:00,SystemResetWarning,0827.9,4.99,000.00,025.5,024.4,000.0,033.9,027.3,015.2,0000.0,0012.63,0004.06,0002.45
2024-04-13 16:26:00,SystemResetWarning,0827.5,5.00,000.00,025.5,024.6,000.0,033.9,027.4,013.1,0000.0,0011.56,0003.99,0002.45
2024-04-13 16:27:00,SystemResetWarning,0827.5,5.00,000.00,025.6,024.8,000.0,033.9,027.5,012.8,0000.0,0011.44,0003.99,0002.45
2024-04-13 16:28:00,SystemResetWarning,0827.6,5.00,000.00,025.6,024.9,000.0,033.9,027.5,012.3,0000.0,0011.45,0004.04,0002.44
2024-04-13 16:29:00,SystemResetWarning,0827.6,5.00,000.00,025.7,025.0,000.0,034.0,027.6,012.3,0000.0,0011.62,0004.10,0002.44
2024-04-13 16:30:00,SystemResetWarning,0827.6,5.01,000.00,025.7,025.1,000.0,034.0,027.6,012.1,0000.0,0011.72,0004.14,0002.43
2024-04-13 16:31:00,SystemResetWarning,0827.5,5.00,000.00,025.8,025.2,000.0,034.0,027.7,011.9,0000.0,0012.43,0004.17,0002.43
2024-04-13 16:32:00,SystemResetWarning,0827.5,5.00,000.00,025.8,025.2,000.0,034.0,027.8,011.7,0000.0,0013.06,0004.28,0002.44
2024-04-13 16:33:00,SystemResetWarning,0827.6,4.99,000.00,025.9,025.3,000.0,034.1,027.8,011.7,0000.0,0012.60,0004.24,0002.44
2024-04-13 16:34:00,SystemResetWarning,0827.6,5.00,000.00,025.9,025.4,000.0,034.1,027.9,012.0,0000.0,0012.71,0004.26,0002.45
2024-04-13 16:35:00,SystemResetWarning,0827.6,5.00,000.00,026.0,025.4,000.0,034.1,027.9,012.9,0000.0,0012.69,0004.26,0002.45
2024-04-13 16:36:00,SystemResetWarning,0827.5,5.01,000.00,026.0,025.5,000.0,034.2,027.9,013.1,0000.0,0011.48,0004.29,0002.46
2024-04-13 16:37:00,SystemResetWarning,0827.5,5.01,000.00,026.1,025.5,000.0,034.2,028.0,012.1,0000.0,0012.27,0004.31,0002.45
2024-04-13 16:38:00,SystemResetWarning,0827.5,5.01,000.00,026.1,025.6,000.0,034.2,028.0,013.0,0000.0,0013.60,0004.31,0002.45
2024-04-13 16:39:00,SystemResetWarning,0827.6,4.99,000.00,026.2,025.6,000.0,034.3,028.1,012.7,0000.0,0014.43,0004.32,0002.45
2024-04-13 16:40:00,SystemResetWarning,0827.6,5.00,000.00,026.2,025.4,000.0,034.3,027.9,013.0,0000.0,0015.30,0004.32,0002.46
2024-04-13 16:41:00,SystemResetWarning,0827.4,4.98,000.00,025.9,023.4,000.0,034.4,026.7,013.4,0000.0,0015.55,0004.28,0002.47
2024-04-13 16:42:00,SystemResetWarning,0827.4,5.01,000.00,025.4,022.0,000.0,034.4,025.8,014.9,0000.0,0015.82,0004.30,0002.48
2024-04-13 16:43:00,SystemResetWarning,0827.4,5.01,000.00,025.2,022.3,000.0,034.3,025.9,014.2,0000.0,0015.43,0004.20,0002.48
2024-04-13 16:44:00,SystemResetWarning,0827.5,5.01,000.00,025.1,022.7,000.0,034.1,026.2,013.2,0000.0,0016.99,0004.25,0002.48
2024-04-13 16:45:00,SystemResetWarning,0827.8,5.00,000.00,025.1,023.0,000.0,034.0,026.5,013.8,0000.0,0017.41,0004.23,0002.46
2024-04-13 16:46:00,SystemResetWarning,0827.9,5.00,000.00,025.2,023.4,000.0,033.9,026.7,013.9,0000.0,0017.63,0004.26,0002.46
2024-04-13 16:47:00,SystemResetWarning,0827.7,5.01,000.00,025.2,023.7,000.0,033.9,026.9,014.3,0000.0,0018.29,0004.30,0002.47
2024-04-13 16:48:00,SystemResetWarning,0827.5,4.99,000.00,025.3,024.0,000.0,033.8,027.0,016.4,0000.0,0018.94,0004.32,0002.49
2024-04-13 16:49:00,SystemResetWarning,0827.6,4.99,000.00,025.4,024.2,000.0,033.8,027.2,016.4,0000.0,0018.28,0004.33,0002.51
2024-04-13 16:50:00,SystemResetWarning,0827.6,5.00,000.00,025.4,024.4,000.0,033.8,027.2,014.0,0000.0,0017.84,0004.30,0002.51
2024-04-13 16:51:00,SystemResetWarning,0827.6,5.00,000.00,025.5,024.6,000.0,033.8,027.3,013.6,0000.0,0017.33,0004.31,0002.50
2024-04-13 16:52:00,SystemResetWarning,0827.5,5.01,000.00,025.5,024.7,000.0,033.8,027.4,011.9,0000.0,0017.12,0004.35,0002.52
2024-04-13 16:53:00,SystemResetWarning,0827.4,5.00,000.00,025.6,024.8,000.0,033.8,027.5,010.9,0000.0,0016.23,0004.32,0002.51
2024-04-13 16:54:00,SystemResetWarning,0827.6,5.00,000.00,025.6,025.0,000.0,033.9,027.5,011.1,0000.0,0016.60,0004.32,0002.48
2024-04-13 16:55:00,SystemResetWarning,0827.5,5.00,000.00,025.7,025.1,000.0,033.9,027.6,011.7,0000.0,0015.42,0004.27,0002.49
2024-04-13 16:56:00,SystemResetWarning,0827.6,5.00,000.00,025.8,025.2,000.0,033.9,027.7,012.3,0000.0,0014.90,0004.30,0002.49
2024-04-13 16:57:00,SystemResetWarning,0827.6,5.00,000.00,025.8,025.2,000.0,033.9,027.7,011.2,0000.0,0015.73,0004.35,0002.49
2024-04-13 16:58:00,SystemResetWarning,0827.6,5.00,000.00,025.8,025.3,000.0,034.0,027.8,010.8,0000.0,0015.51,0004.32,0002.49
2024-04-13 16:59:00,SystemResetWarning,0827.5,5.00,000.00,025.9,025.4,000.0,034.0,027.8,010.5,0000.0,0014.48,0004.29,0002.47
